TimeEDT,TemperatureF,Dew PointF,Humidity,Sea Level PressureIn,VisibilityMPH,Wind Direction,Wind SpeedMPH,Gust SpeedMPH,PrecipitationIn,Events,Conditions,WindDirDegrees,DateUTC
12:53 AM,-9999,-9999,N/A,30.18,-9999.0,North,-9999.0,-,N/A,,Unknown,0,2013-09-28 04:53:00
1:53 AM,-9999,-9999,N/A,30.19,-9999.0,North,-9999.0,-,N/A,,Unknown,0,2013-09-28 05:53:00
2:53 AM,-9999,-9999,N/A,30.19,-9999.0,North,-9999.0,-,N/A,,Unknown,0,2013-09-28 06:53:00
3:53 AM,-9999,-9999,N/A,30.18,-9999.0,North,-9999.0,-,N/A,,Unknown,0,2013-09-28 07:53:00
4:53 AM,-9999,-9999,N/A,30.18,-9999.0,North,-9999.0,-,N/A,,Unknown,0,2013-09-28 08:53:00
5:53 AM,-9999,-9999,N/A,30.19,-9999.0,North,-9999.0,-,N/A,,Unknown,0,2013-09-28 09:53:00
6:53 AM,-9999,-9999,N/A,30.20,-9999.0,North,-9999.0,-,N/A,,Unknown,0,2013-09-28 10:53:00
7:53 AM,-9999,-9999,N/A,30.21,10.0,South,9.2,-,N/A,,Clear,170,2013-09-28 11:53:00
8:53 AM,-9999,-9999,N/A,30.21,10.0,South,10.4,-,N/A,,Clear,180,2013-09-28 12:53:00
9:53 AM,-9999,-9999,N/A,30.22,10.0,South,3.5,-,N/A,,Clear,170,2013-09-28 13:53:00
10:53 AM,-9999,-9999,N/A,30.21,-9999.0,North,-9999.0,-,N/A,,Unknown,0,2013-09-28 14:53:00
11:53 AM,-9999,-9999,N/A,30.21,10.0,South,8.1,-,N/A,,Clear,180,2013-09-28 15:53:00
12:53 PM,-9999,-9999,N/A,30.20,10.0,Variable,5.8,-,N/A,,Clear,0,2013-09-28 16:53:00
1:53 PM,-9999,-9999,N/A,30.17,-9999.0,North,-9999.0,-,N/A,,Unknown,0,2013-09-28 17:53:00
2:53 PM,-9999,-9999,N/A,30.14,10.0,South,5.8,-,N/A,,Clear,170,2013-09-28 18:53:00
3:53 PM,-9999,-9999,N/A,30.12,10.0,South,5.8,-,N/A,,Clear,170,2013-09-28 19:53:00
4:53 PM,-9999,-9999,N/A,30.11,10.0,SSE,5.8,-,N/A,,Clear,160,2013-09-28 20:53:00
5:53 PM,-9999,-9999,N/A,30.10,10.0,South,5.8,-,N/A,,Clear,180,2013-09-28 21:53:00
6:53 PM,-9999,-9999,N/A,30.10,-9999.0,North,-9999.0,-,N/A,,Unknown,0,2013-09-28 22:53:00
7:53 PM,-9999,-9999,N/A,30.11,10.0,Calm,Calm,-,N/A,,Clear,0,2013-09-28 23:53:00
8:53 PM,-9999,-9999,N/A,30.11,10.0,Calm,Calm,-,N/A,,Clear,0,2013-09-29 00:53:00
9:53 PM,-9999,-9999,N/A,30.11,-9999.0,North,-9999.0,-,N/A,,Unknown,0,2013-09-29 01:53:00
10:53 PM,-9999,-9999,N/A,30.10,-9999.0,North,-9999.0,-,N/A,,Unknown,0,2013-09-29 02:53:00
11:53 PM,-9999,-9999,N/A,30.09,-9999.0,North,-9999.0,-,N/A,,Unknown,0,2013-09-29 03:53:00